Regional Weather Roundup
Issued by NWS

Home | Current Version | Previous Version | Graphics & Text | Print | Product List | Glossary On
Versions: 1 2 3 4 5 6 7 8 9 10 11 12 13 14 15 16 17 18 19 20 21 22 23 24 25 26 27 28 29 30 31 32 33 34 35 36 37 38 39 40 41 42 43 44 45 46 47 48 49 50
000
ASUS45 KCYS 241510
RWRWY

WYOMING REGIONAL WEATHER ROUNDUP
NATIONAL WEATHER SERVICE CHEYENNE WY
900 AM MDT FRI APR 24 2015

NOTE:  "FAIR" INDICATES FEW OR NO CLOUDS BELOW 12,000 FEET
WITH NO SIGNIFICANT WEATHER AND/OR OBSTRUCTIONS TO VISIBILITY.

WYZ001-241600-
YELLOWSTONE NATIONAL PARK

CITY           SKY/WX    TMP DP  RH WIND       PRES   REMARKS
LK YELLOWSTONE   N/A     34  25  69 VRB5      29.79S WCI  30
W YELLOWSTONE  NOT AVBL

$$
WYZ002>013-054>058-071-098>099-241600-
NORTHERN WYOMING

CITY           SKY/WX    TMP DP  RH WIND       PRES   REMARKS
JACKSON        SUNNY     37  34  87 CALM      29.76F
CODY           FAIR      55  25  30 W10G21    29.65F
GREYBULL       FAIR      48  41  76 SE5       29.65F
WORLAND        FAIR      48  43  82 SW3       29.66S
SHERIDAN       FAIR      48  43  82 CALM      29.63F
BUFFALO        FAIR      57  36  45 VRB3      29.65F
GILLETTE       CLOUDY    52  42  69 CALM      29.65S
HULETT         CLOUDY    55  37  50 CALM      29.66S
NEWCASTLE      FAIR      52  36  54 N3        29.65F

$$
WYZ014>020-022>026-101>103-241600-
CENTRAL WYOMING

CITY           SKY/WX    TMP DP  RH WIND       PRES   REMARKS
BIG PINEY      CLOUDY    36  32  85 E5        29.80S WCI  32
PINEDALE       FAIR      36  32  87 CALM      29.80S
DUBOIS         FAIR      43  25  49 NW10      29.73F
LANDER         FAIR      50  29  44 SE3       29.69F
RIVERTON       FAIR      50  28  42 W13       29.70F
CASPER         FAIR      52  36  54 SW17      29.69F
DOUGLAS        FAIR      50  40  68 NW6       29.68S

$$
WYZ021-027>030-104>119-241600-
SOUTHERN WYOMING

CITY           SKY/WX    TMP DP  RH WIND       PRES   REMARKS
EVANSTON       FAIR      41  31  67 SW8       29.79S
KEMMERER       FAIR      41  34  75 CALM      29.79S
FORT BRIDGER   MOSUNNY   46  30  53 W9        29.81S
ROCK SPRINGS   FAIR      43  34  70 W3        29.78S
DIXON          FAIR      43  33  66 CALM      29.83S
RAWLINS        FAIR      49  30  48 SW20      29.77S
SARATOGA       FAIR      45  32  61 SE6       29.79S
LARAMIE        FAIR      47  30  51 SW16      29.76F
CHEYENNE       FAIR      54  29  38 W18G26    29.73F
TORRINGTON     FAIR      54  36  50 VRB3      29.66F
PINE BLUFFS    FAIR      54  36  50 SW8       29.72F

$$



USA.gov is the U.S. government's official web portal to all federal, state and local government web resources and services.